Location: Gleizolles
(44.4833°N, 6.7667°E)
Time: 20:37:55
(UTC+00:00)

Tiros 1 despin weight - Pass Details

Date: 26 June 2024
Orbit: 576 x 620 km, 48.2° (Epoch: 19 July)

Event Time Altitude Azimuth Distance (km) Brightness Sun altitude
Rises 17:00:48 0° 284° (WNW) 2,891 ? 22.2°
Reaches altitude 10° 17:03:51 10° 263° (W) 1,976 ? 21.7°
Maximum altitude 17:06:39 16° 225° (SW) 1,598 ? 21.2°
Drops below altitude 10° 17:09:25 10° 187° (S) 1,955 ? 20.7°
Sets 17:12:26 0° 166° (SSE) 2,845 ? 20.2°
